TimeEST,TemperatureF,Dew PointF,Humidity,Sea Level PressureIn,VisibilityMPH,Wind Direction,Wind SpeedMPH,Gust SpeedMPH,PrecipitationIn,Events,Conditions,WindDirDegrees,DateUTC
12:55 AM,36.1,29.7,77,30.16,10.0,SSE,9.2,-,N/A,,Clear,150,2012-11-30 05:55:00
1:55 AM,34.5,29.5,82,30.16,10.0,SSE,6.9,-,N/A,,Clear,150,2012-11-30 06:55:00
2:55 AM,34.7,29.7,82,30.16,10.0,SSE,6.9,-,N/A,,Clear,150,2012-11-30 07:55:00
3:55 AM,32.2,28.6,87,30.16,10.0,SE,5.8,-,N/A,,Partly Cloudy,140,2012-11-30 08:55:00
4:55 AM,32.5,28.6,85,30.14,10.0,SSE,9.2,-,N/A,,Clear,150,2012-11-30 09:55:00
5:55 AM,31.1,27.9,88,30.14,10.0,SSE,6.9,-,N/A,,Clear,160,2012-11-30 10:55:00
6:55 AM,33.6,28.4,81,30.14,10.0,South,5.8,-,N/A,,Partly Cloudy,180,2012-11-30 11:55:00
7:55 AM,32.2,27.5,83,30.14,10.0,South,6.9,-,N/A,,Clear,180,2012-11-30 12:55:00
8:55 AM,37.9,30.2,74,30.14,10.0,South,6.9,-,N/A,,Mostly Cloudy,180,2012-11-30 13:55:00
9:55 AM,42.8,32.2,66,30.14,10.0,SSW,5.8,-,N/A,,Mostly Cloudy,200,2012-11-30 14:55:00
10:30 AM,44.6,32.0,61,30.12,10.0,SW,5.8,-,N/A,,Mostly Cloudy,220,2012-11-30 15:30:00
10:55 AM,46.8,32.7,58,30.14,10.0,SW,10.4,-,N/A,,Mostly Cloudy,220,2012-11-30 15:55:00
11:55 AM,50.5,33.4,52,30.13,10.0,WSW,11.5,-,N/A,,Scattered Clouds,240,2012-11-30 16:55:00
12:55 PM,53.1,33.3,47,30.11,10.0,WSW,11.5,-,N/A,,Clear,240,2012-11-30 17:55:00
1:55 PM,54.9,34.2,46,30.10,10.0,SW,10.4,-,N/A,,Clear,230,2012-11-30 18:55:00
2:55 PM,55.0,34.9,47,30.09,10.0,South,8.1,-,N/A,,Mostly Cloudy,190,2012-11-30 19:55:00
3:55 PM,54.1,35.2,49,30.10,10.0,SW,8.1,-,N/A,,Overcast,220,2012-11-30 20:55:00
4:55 PM,51.3,35.8,55,30.11,10.0,SW,8.1,-,N/A,,Mostly Cloudy,220,2012-11-30 21:55:00
5:55 PM,44.4,34.2,67,30.13,10.0,Calm,Calm,-,N/A,,Clear,0,2012-11-30 22:55:00
6:55 PM,43.3,34.5,71,30.16,10.0,Calm,Calm,-,N/A,,Scattered Clouds,0,2012-11-30 23:55:00
7:55 PM,43.0,34.9,73,30.18,10.0,Calm,Calm,-,N/A,,Mostly Cloudy,0,2012-12-01 00:55:00
8:55 PM,40.8,35.1,80,30.18,10.0,SSE,5.8,-,N/A,,Overcast,160,2012-12-01 01:55:00
9:55 PM,40.1,33.8,78,30.16,10.0,SSE,8.1,-,N/A,,Clear,150,2012-12-01 02:55:00
10:55 PM,39.0,34.3,83,30.16,10.0,South,5.8,-,N/A,,Clear,170,2012-12-01 03:55:00
11:55 PM,38.5,34.3,85,30.16,10.0,SSE,6.9,-,N/A,,Clear,160,2012-12-01 04:55:00